When you browse on this site, cookies collect data to enhance your experience and personalize the content and advertising you see.
Visit our Privacy Policy to learn more. By continuing to use the site, you agree to this use of cookies and data.
  • In Hungary
  • List of Countries
  • For 7 days
  • Water Temperature
  • Satellite Maps
  • Weather Map
  • News
  • Weather Widgets
  • user-avatar
    Login

    Hourly Weather Parakou

    Today, 24 January, Thursday

    Time Temperature Precipitation Wind Pressure Humidity
    00:00 +30°C° 0 mm 2 mps 727 mmHg 10%
    01:00 +29°C° 0 mm 1 mps 727 mmHg 10%
    02:00 +28°C° 0 mm 1 mps 727 mmHg 10%
    03:00 +27°C° 0 mm 1 mps 726 mmHg 11%
    04:00 +27°C° 0 mm 1 mps 727 mmHg 13%
    05:00 +26°C° 0 mm 1 mps 727 mmHg 15%
    06:00 +26°C° 0 mm 1 mps 727 mmHg 17%
    07:00 +28°C° 0 mm 1 mps 728 mmHg 20%
    08:00 +31°C° 0 mm 1 mps 728 mmHg 23%
    09:00 +33°C° 0 mm 1 mps 729 mmHg 26%
    10:00 +35°C° 0 mm 1 mps 728 mmHg 24%
    11:00 +37°C° 0 mm 1 mps 728 mmHg 22%
    12:00 +41°C° 0 mm 1 mps 728 mmHg 21%
    13:00 +40°C° 0 mm 1 mps 727 mmHg 21%
    14:00 +40°C° 0 mm 1 mps 726 mmHg 21%
    15:00 +40°C° 0 mm 1 mps 725 mmHg 21%
    16:00 +39°C° 0 mm 1 mps 725 mmHg 23%
    17:00 +37°C° 0 mm 1 mps 725 mmHg 25%
    18:00 +36°C° 0 mm 1 mps 725 mmHg 28%
    19:00 +35°C° 0 mm 1 mps 726 mmHg 28%
    20:00 +35°C° 0 mm 1 mps 727 mmHg 28%
    21:00 +35°C° 0 mm 1 mps 727 mmHg 29%
    22:00 +34°C° 0 mm 1 mps 727 mmHg 26%
    23:00 +34°C° 0 mm 1 mps 727 mmHg 22%

    Tomorrow, 25 January, Friday

    Time Temperature Precipitation Wind Pressure Humidity
    00:00 +33°C° 0 mm 1 mps 727 mmHg 19%
    01:00 +33°C° 0 mm 1 mps 727 mmHg 19%
    02:00 +32°C° 0 mm 1 mps 727 mmHg 20%
    03:00 +31°C° 0 mm 1 mps 727 mmHg 20%
    04:00 +30°C° 0 mm 1 mps 727 mmHg 26%
    05:00 +27°C° 0 mm 0 mps 727 mmHg 32%
    06:00 +26°C° 0 mm 0 mps 727 mmHg 39%
    07:00 +30°C° 0 mm 1 mps 728 mmHg 39%
    08:00 +31°C° 0 mm 1 mps 728 mmHg 40%
    09:00 +33°C° 0 mm 1 mps 729 mmHg 40%
    10:00 +36°C° 0 mm 1 mps 729 mmHg 32%
    11:00 +40°C° 0 mm 1 mps 729 mmHg 23%
    12:00 +39°C° 0 mm 0 mps 728 mmHg 14%
    13:00 +39°C° 0 mm 0 mps 727 mmHg 13%
    14:00 +39°C° 0 mm 0 mps 726 mmHg 12%
    15:00 +40°C° 0 mm 0 mps 726 mmHg 11%
    16:00 +38°C° 0 mm 0 mps 726 mmHg 12%
    17:00 +36°C° 0 mm 0 mps 726 mmHg 12%
    18:00 +36°C° 0 mm 1 mps 726 mmHg 12%
    19:00 +35°C° 0 mm 1 mps 726 mmHg 11%
    20:00 +34°C° 0 mm 1 mps 727 mmHg 11%
    21:00 +33°C° 0 mm 1 mps 727 mmHg 10%
    22:00 +32°C° 0 mm 1 mps 727 mmHg 10%
    23:00 +31°C° 0 mm 1 mps 727 mmHg 9%

    Day after tomorrow, 26 January, Saturday

    Time Temperature Precipitation Wind Pressure Humidity
    00:00 +30°C° 0 mm 1 mps 727 mmHg 9%
    01:00 +30°C° 0 mm 1 mps 726 mmHg 9%
    02:00 +29°C° 0 mm 1 mps 726 mmHg 9%
    03:00 +28°C° 0 mm 1 mps 726 mmHg 10%
    04:00 +27°C° 0 mm 1 mps 726 mmHg 10%
    05:00 +27°C° 0 mm 1 mps 726 mmHg 10%
    06:00 +24°C° 0 mm 0 mps 727 mmHg 10%
    07:00 +29°C° 0 mm 1 mps 727 mmHg 9%
    08:00 +31°C° 0 mm 1 mps 728 mmHg 7%
    09:00 +34°C° 0 mm 2 mps 729 mmHg 6%
    10:00 +36°C° 0 mm 2 mps 729 mmHg 5%
    11:00 +38°C° 0 mm 2 mps 728 mmHg 5%
    12:00 +40°C° 0 mm 2 mps 728 mmHg 5%
    13:00 +41°C° 0 mm 2 mps 727 mmHg 5%
    14:00 +41°C° 0 mm 2 mps 726 mmHg 5%
    15:00 +42°C° 0 mm 2 mps 725 mmHg 5%
    16:00 +40°C° 0 mm 1 mps 725 mmHg 5%
    17:00 +37°C° 0 mm 1 mps 725 mmHg 6%
    18:00 +36°C° 0 mm 1 mps 725 mmHg 7%
    19:00 +34°C° 0 mm 1 mps 726 mmHg 7%
    20:00 +33°C° 0 mm 1 mps 727 mmHg 7%
    21:00 +32°C° 0 mm 2 mps 727 mmHg 8%
    22:00 +31°C° 0 mm 1 mps 727 mmHg 8%
    23:00 +31°C° 0 mm 1 mps 727 mmHg 9%

    27 January, Sunday

    Time Temperature Precipitation Wind Pressure Humidity
    00:00 +30°C° 0 mm 1 mps 727 mmHg 9%
    01:00 +29°C° 0 mm 1 mps 727 mmHg 9%
    02:00 +28°C° 0 mm 1 mps 726 mmHg 10%
    03:00 +27°C° 0 mm 1 mps 726 mmHg 10%
    04:00 +27°C° 0 mm 1 mps 727 mmHg 15%
    05:00 +24°C° 0 mm 0 mps 727 mmHg 20%
    06:00 +24°C° 0 mm 0 mps 727 mmHg 25%
    07:00 +28°C° 0 mm 1 mps 728 mmHg 24%
    08:00 +30°C° 0 mm 1 mps 729 mmHg 23%
    09:00 +33°C° 0 mm 1 mps 729 mmHg 22%
    10:00 +35°C° 0 mm 1 mps 729 mmHg 17%
    11:00 +37°C° 0 mm 1 mps 728 mmHg 13%
    12:00 +41°C° 0 mm 1 mps 728 mmHg 9%
    13:00 +41°C° 0 mm 1 mps 727 mmHg 8%
    14:00 +42°C° 0 mm 1 mps 726 mmHg 7%
    15:00 +40°C° 0 mm 0 mps 725 mmHg 6%
    16:00 +37°C° 0 mm 0 mps 725 mmHg 6%
    17:00 +35°C° 0 mm 0 mps 725 mmHg 7%
    18:00 +33°C° 0 mm 0 mps 725 mmHg 7%
    19:00 +34°C° 0 mm 1 mps 726 mmHg 7%
    20:00 +33°C° 0 mm 1 mps 726 mmHg 7%
    21:00 +32°C° 0 mm 2 mps 727 mmHg 7%
    22:00 +31°C° 0 mm 1 mps 727 mmHg 7%
    23:00 +30°C° 0 mm 1 mps 727 mmHg 7%

    28 January, Monday

    Time Temperature Precipitation Wind Pressure Humidity
    00:00 +27°C° 0 mm 0 mps 727 mmHg 7%
    01:00 +27°C° 0 mm 0 mps 726 mmHg 9%
    02:00 +26°C° 0 mm 0 mps 726 mmHg 12%
    03:00 +26°C° 0 mm 0 mps 726 mmHg 14%
    04:00 +25°C° 0 mm 0 mps 726 mmHg 20%
    05:00 +27°C° 0 mm 1 mps 726 mmHg 25%
    06:00 +27°C° 0 mm 1 mps 727 mmHg 31%
    07:00 +28°C° 0 mm 1 mps 727 mmHg 37%
    08:00 +30°C° 0 mm 1 mps 728 mmHg 43%
    09:00 +32°C° 0 mm 2 mps 728 mmHg 48%
    10:00 +35°C° 0 mm 2 mps 728 mmHg 40%
    11:00 +36°C° 0 mm 1 mps 727 mmHg 33%
    12:00 +39°C° 0 mm 1 mps 727 mmHg 25%
    13:00 +40°C° 0 mm 1 mps 726 mmHg 23%
    14:00 +40°C° 0 mm 1 mps 725 mmHg 20%
    15:00 +41°C° 0 mm 1 mps 724 mmHg 18%
    16:00 +39°C° 0 mm 1 mps 724 mmHg 19%
    17:00 +37°C° 0 mm 1 mps 725 mmHg 21%
    18:00 +36°C° 0 mm 1 mps 725 mmHg 22%
    19:00 +35°C° 0 mm 1 mps 725 mmHg 23%
    20:00 +34°C° 0 mm 1 mps 726 mmHg 24%
    21:00 +31°C° 0 mm 0 mps 727 mmHg 24%
    22:00 +30°C° 0 mm 0 mps 727 mmHg 24%
    23:00 +29°C° 0 mm 0 mps 727 mmHg 23%

    29 January, Tuesday

    Time Temperature Precipitation Wind Pressure Humidity
    00:00 +29°C° 0 mm 0 mps 727 mmHg 23%
    01:00 +30°C° 0.1 mm 1 mps 726 mmHg 34%
    02:00 +29°C° 0.1 mm 1 mps 726 mmHg 44%
    03:00 +28°C° 0.1 mm 2 mps 726 mmHg 55%
    04:00 +28°C° 0 mm 1 mps 726 mmHg 62%
    05:00 +27°C° 0 mm 1 mps 727 mmHg 69%
    06:00 +27°C° 0 mm 1 mps 727 mmHg 76%
    07:00 +29°C° 0 mm 1 mps 727 mmHg 70%
    08:00 +30°C° 0 mm 1 mps 728 mmHg 63%
    09:00 +32°C° 0 mm 1 mps 728 mmHg 57%
    10:00 +35°C° 0 mm 1 mps 728 mmHg 44%
    11:00 +36°C° 0 mm 0 mps 728 mmHg 32%
    12:00 +39°C° 0 mm 0 mps 727 mmHg 19%
    13:00 +39°C° 0 mm 0 mps 727 mmHg 18%
    14:00 +40°C° 0 mm 0 mps 726 mmHg 16%
    15:00 +40°C° 0 mm 0 mps 725 mmHg 15%
    16:00 +38°C° 0 mm 0 mps 725 mmHg 16%
    17:00 +36°C° 0 mm 0 mps 725 mmHg 17%
    18:00 +34°C° 0 mm 0 mps 725 mmHg 18%
    19:00 +35°C° 0 mm 1 mps 726 mmHg 17%
    20:00 +34°C° 0 mm 1 mps 726 mmHg 16%
    21:00 +33°C° 0 mm 1 mps 727 mmHg 15%
    22:00 +32°C° 0 mm 1 mps 727 mmHg 13%
    23:00 +31°C° 0 mm 1 mps 727 mmHg 11%
    Show more